Location: Aydie
(43.5695°N, 0.1043°W)
Time: 06:11:47
(UTC+00:00)

Cosmos 2369 Rocket - Pass Details

Date: 17 November 2025
Orbit: 826 x 852 km, 71.0° (Epoch: 04 December)

Event Time Altitude Azimuth Distance (km) Brightness Sun altitude
Rises 19:42:18 0° 208° (SSW) 3,355 5.6 -34.1°
Reaches altitude 10° 19:44:43 10° 210° (SSW) 2,428 4.8 -34.5°
Enters shadow 19:46:10 19° 212° (SSW) 1,887 4.2 -34.8°
